SCP
0 0 0 0 0 0 0 -0 -0 0 0 0 0 0 0 0 0 0 0 0 0 0 0 0 -0 -0 -0 -0 -0 -0 -0 -0 -0 -0 -0 -0 -0 -0 -0 -0 -0 -0 -0 -0 -0 -0 -0 -0 -0
0 0 0 0 0 0 0 0 -0 -0 0 0 0 0 0 0 0 0 0 0 0 0 0 0 -0 -0 -0 -0 -0 -0 -0 -0 -0 -0 -0 -0 -0 -0 -0 -0 -0 0 0 0 0 -0 -0 -0 -0
-0 0 0 0 0 0 0 0 0 0 -0 0 0 0 0 0 0 0 0 -0 0 0 0 0 0 -0 -0 -0 -0 -0 -0 -0 -0 -0 -0 -0 -0 -0 -0 -0 -0 0 0 0 0 0 0 0 -0
0 0 0 0 0 0 0 0 0 0 0 0 0 0 0 0 0 0 -0 -0 0 0 0 0 0 0 -0 -0 -0 0 -0 -0 -0 -0 -0 -0 -0 -0 -0 -0 0 -0 0 0 0 0 0 0 0
0 0 0 0 0 0 0 0 0 0 0 0 0 0 0 0 0 0 -0 -0 -0 0 0 0 0 0 0 0 0 0 0 0 0 0 -0 -0 0 -0 -0 -0 0 0 0 0 0 0 0 0 0
0 0 0 0 0 0 0 0 0 0 0 0 0 0 0 0 -0 0 0 0 0 0 0 0 0 0 0 0 0 0 0 0 0 0 -0 -0 0 0 0 0 0 0 0 0 0 0 0 0 0
0 0 0 0 0 0 0 0 0 0 0 0 0 0 0 0 -0 -0 -0 0 0 0 0 0 0 0 0 0 0 0 0 0 0 0 0 0 0 0 0 0 0 0 0 0 0 0 0 0 0
0 0 0 0 0 0 0 0 0 0 0 0 0 0 0 -0 -0 -0 -0 -0 0 0 0 0 0 0 0 0 0 0 0 0 0 0 0 0 0 0 0 0 0 0 0 0 0 0 0 0 0
0 0 0 0 0 0 0 0 0 0 0 0 0 0 0 -0 -0 -0 -0 -0 -0 0 0 0 0 0 0 0 0 0 0 0 0 0 0 0 0 0 0 0 0 0 0 0 0 0 0 0 0
0 0 0 0 0 0 0 0 0 0 0 0 0 0 0 0 -0 -0 -0 -0 -0 -0 -0 0 0 0 0 0 0 0 0 0 0 0 0 0 0 0 0 0 0 0 0 0 0 0 0 0 0
0 0 0 0 0 0 0 0 0 0 0 0 0 0 0 0 0 0 0 0 -0 0 0 -0 0 0 0 0 0 0 0 0 0 0 0 0 0 0 0 0 0 0 0 0 0 0 0 0 0
0 0 0 0 0 0 0 0 0 0 0 0 0 0 0 0 0 0 0 0 0 0 0 0 0 0 0 0 0 0 0 0 0 0 0 0 0 0 0 0 0 0 0 0 0 0 0 0 0
0 0 0 0 0 0 0 0 0 0 0 0 0 0 0 0 0 0 0 0 0 0 0 0 0 0 0 0 0 0 0 0 0 0 0 0 0 0 0 0 0 0 0 0 0 0 0 0 0
0 0 0 0 0 0 0 0 0 0 0 0 0 0 0 0 0 0 0 0 0 0 0 0 0 0 0 0 0 0 0 0 0 0 0 0 0 0 0 0 0 0 0 0 0 0 0 0 0
0 0 0 0 0 0 0 0 0 0 0 0 0 0 0 0 0 0 0 0 0 0 0 0 0 0 0 0 0 0 0 0 0 0 0 0 0 0 0 0 0 0 0 0 0 0 0 0 0
0 0 0 0 0 0 0 0 0 0 0 0 0 0 0 0 0 0 0 0 0 0 0 0 0 0 0 0 0 0 0 0 0 0 0 0 0 0 0 0 0 0 0 0 0 0 0 0 0
0 0 0 0 0 0 0 0 0 0 0 0 0 0 0 0 0 0 0 0 0 0 0 0 0 0 0 0 0 0 0 0 0 0 0 0 0 0 0 0 0 0 0 0 0 0 0 0 0
0 0 0 0 0 0 0 0 0 0 0 0 0 0 0 0 0 0 0 0 0 0 0 0 0 0 0 0 0 0 0 0 0 0 0 0 0 0 0 0 0 0 0 0 0 0 0 0 0
0 0 0 0 0 0 0 0 0 0 0 0 0 0 0 0 0 0 0 0 0 0 0 0 0 0 0 0 0 0 0 0 0 0 0 0 0 0 0 0 0 0 0 0 0 0 0 0 0
0 0 0 0 0 0 0 0 0 0 0 0 0 0 0 0 0 0 0 0 0 0 0 0 0 0 0 0 0 0 0 0 0 0 0 0 0 0 0 0 0 0 0 0 0 0 0 0 0
0 0 0 0 0 0 0 0 0 0 0 0 0 0 0 0 0 0 0 0 0 0 0 0 0 0 0 0 0 0 0 0 0 0 0 0 0 0 0 0 0 0 0 0 0 0 0 0 0
0 0 0 0 0 0 0 0 0 0 0 0 0 0 0 0 0 0 0 0 0 0 0 0 0 0 0 0 0 0 0 0 0 0 0 0 0 0 0 0 0 0 0 0 0 0 0 0 0
0 0 0 0 0 0 0 0 0 0 0 0 0 0 0 0 0 0 0 0 0 0 0 0 0 0 0 0 0 0 0 0 0 0 0 0 0 0 0 0 0 0 0 0 0 0 0 0 0
0 0 0 0 0 0 0 0 -0 0 0 0 0 0 0 0 0 0 0 0 0 0 0 0 0 0 0 0 0 0 0 0 0 0 0 0 0 0 0 0 0 0 0 0 0 0 0 0 0
0 0 0 0 0 0 0 0 0 0 0 0 0 0 0 0 0 0 0 0 0 0 0 0 0 0 0 0 0 0 0 0 0 0 0 0 0 0 0 0 0 0 0 0 0 0 0 0 0
0 0 0 0 0 0 0 0 0 0 0 0 0 0 0 0 0 0 0 0 0 0 0 0 0 0 0 0 0 0 0 0 0 0 0 0 0 0 0 0 0 0 0 0 0 0 0 0 0
0 0 0 0 0 0 0 0 0 0 0 0 0 0 0 0 0 0 0 0 0 0 0 0 0 0 0 0 0 0 0 0 0 0 0 0 0 0 0 0 0 0 0 0 0 0 0 0 0
0 0 0 0 0 0 0 0 0 0 0 0 0 0 0 0 0 0 0 0 0 0 0 0 0 0 0 0 0 0 0 0 0 0 0 0 0 0 0 0 0 0 0 0 0 0 0 0 0
0 0 0 0 0 0 0 0 0 0 0 0 0 0 0 0 0 0 0 0 0 0 0 0 0 0 0 0 0 0 0 0 0 0 0 0 0 0 0 0 0 0 0 0 0 0 0 0 0
0 0 0 0 0 0 0 0 0 0 0 0 0 0 0 0 0 0 0 0 0 0 0 0 0 0 0 0 0 0 0 0 0 0 0 0 0 0 0 0 0 0 0 0 0 0 0 0 0
Wind_Speed_500mb
34 26 6 15 5 8 5 9 2 8 5 6 16 11 14 10 9 8 11 40 38 40 43 40 37 35 34 33 31 32 31 27 27 26 22 19 15 12 10 11 12 12 15 17 18 21 23 22 18
35 15 17 5 8 4 9 6 11 11 9 28 23 15 4 4 8 9 37 35 38 38 41 41 38 35 35 33 31 32 28 25 23 21 19 16 12 11 11 15 15 14 16 18 19 18 18 17 14
33 9 7 8 6 9 8 9 13 9 36 12 10 5 8 4 11 19 24 34 41 40 41 42 39 35 33 32 32 31 28 23 21 19 14 12 10 11 11 14 16 14 16 17 16 17 16 14 11
22 5 5 7 9 10 9 6 13 17 11 8 14 7 5 9 7 25 27 33 41 44 42 42 39 36 33 32 31 29 27 23 19 17 16 11 9 7 9 7 10 11 11 15 14 15 14 12 9
21 3 5 3 8 8 8 7 31 13 14 10 18 9 5 12 13 34 32 32 39 44 43 42 39 35 32 29 30 31 29 25 21 17 14 14 12 13 11 10 15 17 9 13 15 13 12 9 6
12 3 5 6 8 8 9 16 20 13 13 14 5 17 8 17 18 27 31 30 33 39 43 42 39 34 30 28 26 28 29 30 29 24 18 17 18 16 13 16 18 15 14 10 15 14 11 8 5
3 6 7 8 5 9 5 25 15 14 17 14 10 11 8 27 23 24 29 28 32 38 39 41 40 36 31 27 25 24 23 22 23 28 28 24 21 16 14 14 15 15 13 12 12 12 11 10 9
6 6 6 8 9 9 2 15 7 23 15 11 18 9 9 35 32 30 33 31 31 39 41 41 41 38 33 30 27 24 22 22 20 18 20 23 18 17 16 22 15 13 13 13 12 12 12 12 12
6 5 6 9 13 8 5 8 5 9 13 20 27 10 10 32 41 39 42 39 37 40 42 43 44 42 36 31 28 26 24 23 21 19 16 17 18 17 18 19 20 16 14 13 11 11 13 15 16
10 8 18 12 10 9 8 6 8 7 14 14 23 27 17 37 48 49 54 51 48 48 47 45 45 44 40 35 32 29 29 28 27 24 21 18 17 17 17 18 19 20 19 17 15 15 16 16 17
13 13 11 10 18 10 8 4 7 12 6 22 47 42 30 41 50 52 53 51 50 49 48 46 44 44 44 39 35 33 31 29 28 27 24 22 22 22 21 21 21 21 21 20 20 19 20 20 21
8 22 13 9 19 11 7 6 6 16 12 26 33 31 39 48 51 54 53 52 51 50 48 45 41 42 45 42 39 35 34 31 30 28 27 25 24 24 24 24 22 21 21 23 22 22 23 25 26
7 7 22 14 16 14 8 12 9 23 26 24 19 34 50 57 55 53 51 49 47 46 46 46 41 37 41 46 43 40 38 36 32 32 31 31 29 28 26 26 26 26 25 24 24 25 26 28 28
6 12 6 16 17 10 11 6 6 25 35 35 30 34 51 63 60 59 57 53 49 44 43 44 46 41 35 41 43 43 41 38 38 38 37 36 35 33 32 31 29 29 28 27 28 29 30 30 32
3 2 6 10 10 7 14 8 19 55 13 17 29 35 52 65 66 62 55 52 48 47 44 43 44 42 40 35 35 36 35 33 34 35 36 38 38 37 36 36 35 32 31 32 33 34 35 36 36
8 5 6 5 17 9 18 18 18 39 40 41 27 35 50 64 70 64 62 56 52 50 49 42 43 44 42 39 35 35 35 33 29 28 27 31 35 36 37 38 39 35 36 37 38 37 39 41 41
7 8 7 12 20 6 12 13 9 18 25 47 47 33 37 53 67 67 64 59 55 53 50 49 47 46 44 42 38 36 36 38 36 35 34 30 29 31 35 38 38 37 39 41 40 40 42 44 44
11 8 9 11 4 5 9 17 13 1 12 23 23 31 43 45 60 66 65 61 58 56 55 51 52 49 49 48 46 42 42 43 43 43 40 38 37 35 38 37 38 38 42 44 45 48 46 48 47
7 6 8 5 3 7 14 12 30 21 20 25 30 34 36 40 49 54 65 62 60 60 60 58 56 57 52 57 55 52 50 44 45 42 42 42 42 40 41 45 42 38 42 45 46 45 46 50 47
4 6 6 7 4 8 5 16 23 11 17 43 54 52 45 42 48 53 55 61 63 61 61 60 58 59 58 58 57 52 47 48 45 43 42 41 42 44 45 45 47 46 42 40 44 45 47 49 46
8 10 6 3 9 2 7 12 14 9 22 40 52 56 59 57 54 55 55 61 64 65 65 65 63 60 57 58 61 61 56 52 50 48 45 41 42 43 43 44 45 47 44 43 38 38 40 43 42
11 14 10 5 7 7 5 11 10 10 12 9 38 58 69 67 63 64 62 61 66 71 66 66 64 65 66 66 66 65 58 50 41 37 35 37 40 41 41 42 43 44 44 46 42 40 41 41 44
12 12 15 10 6 5 2 4 14 7 9 16 23 44 42 41 42 49 56 70 69 67 65 59 52 57 70 74 74 70 65 60 59 54 53 49 45 42 42 41 38 39 42 43 42 43 45 44 44
12 12 11 9 5 7 12 13 8 9 10 8 10 14 19 28 22 22 33 42 57 68 69 59 50 42 51 67 69 69 69 67 67 65 64 55 45 42 41 38 37 37 39 41 43 45 45 45 48
6 11 5 4 3 12 1 5 11 16 8 8 17 43 36 28 24 27 16 19 26 33 37 48 41 28 33 44 51 57 59 60 60 59 55 53 51 49 48 48 45 42 41 42 42 46 51 49 48
16 11 10 14 9 7 3 12 10 5 14 20 25 26 24 23 16 17 14 10 12 18 27 30 29 27 25 29 36 41 43 45 48 50 50 51 50 50 51 51 50 50 49 48 48 49 49 47 46
10 19 9 10 3 6 8 11 14 12 17 23 33 45 41 34 30 29 32 35 35 34 31 27 24 23 20 18 17 19 21 25 27 30 33 36 38 39 41 41 42 45 48 50 48 45 42 43 48
9 13 6 4 7 9 6 7 6 9 12 14 27 35 44 38 42 39 38 39 40 39 36 30 26 22 19 15 14 15 18 20 23 25 27 29 30 32 34 36 38 39 38 37 37 39 43 45 50
11 6 3 3 9 9 5 8 5 8 3 12 16 34 46 47 47 45 43 40 38 35 31 28 23 19 16 12 9 9 10 11 14 16 19 21 23 25 27 31 35 36 35 38 41 43 46 47 49
25 26 13 13 9 4 5 6 5 6 5 19 28 38 43 43 41 39 37 34 31 29 25 21 17 12 11 9 5 4 4 5 8 9 11 13 16 18 19 22 24 26 29 32 35 37 38 39 40
Wind_Direction_500mb
341 343 191 172 70 70 244 246 217 152 175 161 132 167 185 146 162 206 168 165 168 170 164 167 170 167 166 165 162 161 158 151 148 151 155 161 163 169 174 168 158 136 118 110 112 119 126 126 116
340 340 160 162 102 104 257 221 198 194 159 129 116 122 126 176 150 152 150 163 169 170 166 167 168 168 169 169 164 165 166 167 164 164 166 167 164 157 152 148 143 140 113 104 114 117 115 117 97
334 323 200 112 120 183 209 208 191 170 149 154 123 125 151 178 175 171 169 166 167 171 169 169 170 169 169 169 168 167 170 178 173 170 173 168 170 163 140 135 128 137 119 108 107 109 113 112 103
331 250 73 109 208 248 214 206 175 128 197 190 150 119 155 170 179 176 176 170 165 170 172 172 173 172 171 170 172 177 178 182 185 179 177 164 167 190 156 140 160 135 123 120 125 129 132 135 127
321 269 75 119 246 258 259 226 166 153 166 172 172 187 174 193 166 170 177 172 169 172 174 177 178 177 177 178 180 184 186 184 197 202 199 188 183 195 195 175 169 140 150 151 150 153 154 152 149
311 60 77 220 248 270 276 201 165 156 159 155 166 151 170 171 162 171 173 174 173 178 179 183 184 185 185 185 190 190 190 191 195 204 203 196 190 194 208 189 165 173 173 152 162 169 173 173 184
217 92 219 188 241 296 241 171 169 162 160 197 163 141 200 183 167 172 174 176 178 186 189 189 191 191 193 195 197 199 201 202 201 204 204 200 199 197 207 201 180 178 201 214 175 183 189 198 209
271 100 159 224 199 242 113 183 233 178 201 175 187 196 210 192 180 174 179 179 184 190 196 197 198 200 201 201 203 204 206 203 201 198 206 206 210 217 219 225 204 203 199 198 205 200 206 218 229
214 72 236 224 168 229 149 171 206 196 172 181 189 225 222 183 183 179 183 185 190 197 202 203 204 205 207 207 208 208 210 210 212 214 210 207 212 223 225 223 227 230 224 223 227 229 227 233 242
165 168 219 204 204 211 155 145 171 171 177 209 206 213 221 182 188 189 191 194 195 195 199 205 209 211 212 212 213 213 213 214 216 218 224 222 218 221 225 224 231 235 240 244 246 251 256 260 264
182 207 205 230 215 197 184 229 176 150 242 205 211 207 207 191 195 200 202 206 205 201 202 207 211 214 218 220 220 220 221 223 224 224 229 230 229 229 229 228 231 238 243 248 253 257 262 268 271
170 242 202 220 200 187 188 180 233 196 204 219 226 227 212 202 205 208 209 210 210 211 210 210 213 219 221 224 228 230 232 231 230 233 236 238 240 241 241 242 245 248 250 246 245 252 264 272 274
215 244 220 212 192 206 221 230 240 250 228 232 230 222 216 212 213 215 215 216 216 218 217 214 213 218 223 226 230 233 236 237 240 241 242 245 246 248 249 250 250 252 253 251 254 265 272 277 280
247 233 241 231 216 203 193 241 182 257 242 245 239 224 213 212 214 214 215 217 220 220 220 216 217 220 223 227 234 238 240 241 240 241 244 248 252 253 253 254 256 256 257 261 265 272 276 278 280
185 207 295 234 208 227 192 261 222 241 248 224 220 223 216 213 214 218 222 222 221 222 220 220 221 221 223 225 231 236 240 239 242 245 247 249 251 253 256 257 257 259 259 262 265 271 276 279 280
154 96 218 273 158 236 149 260 251 250 237 233 229 220 219 217 218 222 225 229 229 229 227 224 225 226 226 229 231 236 238 241 246 250 255 259 254 252 255 256 258 260 262 264 264 269 273 276 280
335 182 200 314 205 137 175 252 274 253 223 236 230 226 226 228 226 227 228 232 237 236 234 231 230 233 232 233 236 239 243 247 251 255 257 263 269 266 260 258 260 260 260 262 267 273 276 280 282
195 182 209 207 201 205 221 257 267 277 216 238 235 234 233 232 231 230 232 234 238 239 240 240 240 239 238 238 238 240 244 245 248 252 256 260 265 270 274 271 265 265 265 265 267 270 274 280 285
168 194 186 223 244 173 237 251 258 254 255 263 252 254 250 242 236 235 235 235 237 239 238 238 240 241 239 238 236 237 240 245 249 253 256 258 261 270 273 274 275 273 271 274 273 275 279 283 288
141 169 245 286 28 166 281 263 261 214 233 239 255 264 260 255 246 242 235 235 235 235 237 237 236 238 238 240 241 244 249 252 257 260 263 264 268 270 274 273 272 275 277 284 274 273 276 278 281
197 175 169 266 330 123 325 279 248 246 234 249 250 255 261 259 250 243 240 237 238 238 236 236 236 238 238 240 242 242 245 251 256 260 265 269 275 276 276 275 273 271 271 275 284 280 274 275 283
222 178 168 270 25 245 25 281 287 269 268 246 258 250 251 255 256 253 247 240 237 235 238 240 241 242 242 243 243 242 245 252 266 274 277 278 282 280 279 280 273 268 267 270 274 280 280 280 283
222 152 179 184 179 4 249 343 271 293 281 263 253 256 262 269 267 260 258 251 242 239 234 235 239 242 241 242 245 246 247 253 258 266 270 276 280 281 283 280 272 265 265 268 272 275 276 276 280
139 99 67 65 109 268 194 172 253 216 219 272 302 298 306 311 281 296 271 252 245 238 237 238 239 249 245 244 244 245 246 251 257 263 268 270 270 274 279 280 275 272 270 270 273 277 277 277 274
150 117 39 18 360 232 106 196 263 259 288 274 292 306 312 311 304 316 307 264 237 228 231 226 225 234 230 233 236 239 244 248 252 257 258 258 262 265 267 271 272 272 273 271 271 273 277 276 272
190 164 157 181 192 239 57 231 250 37 346 40 52 43 52 47 57 50 72 98 129 171 182 189 193 197 202 215 223 230 238 243 247 250 255 259 261 263 263 263 265 267 268 268 270 271 273 272 266
175 218 152 109 67 63 213 289 321 49 33 22 32 43 41 57 72 84 90 100 109 121 134 143 148 152 160 177 193 208 219 228 233 241 250 256 259 259 259 260 261 263 267 270 270 270 269 270 270
176 149 191 38 150 235 264 275 213 21 23 15 31 32 53 71 80 90 94 97 102 108 113 121 125 135 143 163 185 200 212 222 233 240 246 252 256 257 258 259 262 264 267 271 271 269 267 263 266
182 221 161 135 159 176 160 254 224 149 59 62 44 47 66 76 80 86 93 97 99 104 109 110 115 120 128 138 158 184 202 216 228 238 243 249 255 258 260 262 266 266 267 266 266 265 264 263 264
200 204 189 191 220 227 128 281 135 124 28 78 65 72 81 87 89 91 93 96 99 100 103 105 109 118 121 128 145 177 206 237 254 264 266 269 272 275 277 277 275 271 269 268 268 268 268 269 267
Wind_Speed_850mb
34 26 6 15 5 8 5 9 2 8 5 6 16 11 14 10 9 8 11 40 38 40 43 40 37 35 34 33 31 32 31 27 27 26 22 19 15 12 10 11 12 12 15 17 18 21 23 22 18
35 15 17 5 8 4 9 6 11 11 9 28 23 15 4 4 8 9 37 35 38 38 41 41 38 35 35 33 31 32 28 25 23 21 19 16 12 11 11 15 15 14 16 18 19 18 18 17 14
33 9 7 8 6 9 8 9 13 9 36 12 10 5 8 4 11 19 24 34 41 40 41 42 39 35 33 32 32 31 28 23 21 19 14 12 10 11 11 14 16 14 16 17 16 17 16 14 11
22 5 5 7 9 10 9 6 13 17 11 8 14 7 5 9 7 25 27 33 41 44 42 42 39 36 33 32 31 29 27 23 19 17 16 11 9 7 9 7 10 11 11 15 14 15 14 12 9
21 3 5 3 8 8 8 7 31 13 14 10 18 9 5 12 13 34 32 32 39 44 43 42 39 35 32 29 30 31 29 25 21 17 14 14 12 13 11 10 15 17 9 13 15 13 12 9 6
12 3 5 6 8 8 9 16 20 13 13 14 5 17 8 17 18 27 31 30 33 39 43 42 39 34 30 28 26 28 29 30 29 24 18 17 18 16 13 16 18 15 14 10 15 14 11 8 5
3 6 7 8 5 9 5 25 15 14 17 14 10 11 8 27 23 24 29 28 32 38 39 41 40 36 31 27 25 24 23 22 23 28 28 24 21 16 14 14 15 15 13 12 12 12 11 10 9
6 6 6 8 9 9 2 15 7 23 15 11 18 9 9 35 32 30 33 31 31 39 41 41 41 38 33 30 27 24 22 22 20 18 20 23 18 17 16 22 15 13 13 13 12 12 12 12 12
6 5 6 9 13 8 5 8 5 9 13 20 27 10 10 32 41 39 42 39 37 40 42 43 44 42 36 31 28 26 24 23 21 19 16 17 18 17 18 19 20 16 14 13 11 11 13 15 16
10 8 18 12 10 9 8 6 8 7 14 14 23 27 17 37 48 49 54 51 48 48 47 45 45 44 40 35 32 29 29 28 27 24 21 18 17 17 17 18 19 20 19 17 15 15 16 16 17
13 13 11 10 18 10 8 4 7 12 6 22 47 42 30 41 50 52 53 51 50 49 48 46 44 44 44 39 35 33 31 29 28 27 24 22 22 22 21 21 21 21 21 20 20 19 20 20 21
8 22 13 9 19 11 7 6 6 16 12 26 33 31 39 48 51 54 53 52 51 50 48 45 41 42 45 42 39 35 34 31 30 28 27 25 24 24 24 24 22 21 21 23 22 22 23 25 26
7 7 22 14 16 14 8 12 9 23 26 24 19 34 50 57 55 53 51 49 47 46 46 46 41 37 41 46 43 40 38 36 32 32 31 31 29 28 26 26 26 26 25 24 24 25 26 28 28
6 12 6 16 17 10 11 6 6 25 35 35 30 34 51 63 60 59 57 53 49 44 43 44 46 41 35 41 43 43 41 38 38 38 37 36 35 33 32 31 29 29 28 27 28 29 30 30 32
3 2 6 10 10 7 14 8 19 55 13 17 29 35 52 65 66 62 55 52 48 47 44 43 44 42 40 35 35 36 35 33 34 35 36 38 38 37 36 36 35 32 31 32 33 34 35 36 36
8 5 6 5 17 9 18 18 18 39 40 41 27 35 50 64 70 64 62 56 52 50 49 42 43 44 42 39 35 35 35 33 29 28 27 31 35 36 37 38 39 35 36 37 38 37 39 41 41
7 8 7 12 20 6 12 13 9 18 25 47 47 33 37 53 67 67 64 59 55 53 50 49 47 46 44 42 38 36 36 38 36 35 34 30 29 31 35 38 38 37 39 41 40 40 42 44 44
11 8 9 11 4 5 9 17 13 1 12 23 23 31 43 45 60 66 65 61 58 56 55 51 52 49 49 48 46 42 42 43 43 43 40 38 37 35 38 37 38 38 42 44 45 48 46 48 47
7 6 8 5 3 7 14 12 30 21 20 25 30 34 36 40 49 54 65 62 60 60 60 58 56 57 52 57 55 52 50 44 45 42 42 42 42 40 41 45 42 38 42 45 46 45 46 50 47
4 6 6 7 4 8 5 16 23 11 17 43 54 52 45 42 48 53 55 61 63 61 61 60 58 59 58 58 57 52 47 48 45 43 42 41 42 44 45 45 47 46 42 40 44 45 47 49 46
8 10 6 3 9 2 7 12 14 9 22 40 52 56 59 57 54 55 55 61 64 65 65 65 63 60 57 58 61 61 56 52 50 48 45 41 42 43 43 44 45 47 44 43 38 38 40 43 42
11 14 10 5 7 7 5 11 10 10 12 9 38 58 69 67 63 64 62 61 66 71 66 66 64 65 66 66 66 65 58 50 41 37 35 37 40 41 41 42 43 44 44 46 42 40 41 41 44
12 12 15 10 6 5 2 4 14 7 9 16 23 44 42 41 42 49 56 70 69 67 65 59 52 57 70 74 74 70 65 60 59 54 53 49 45 42 42 41 38 39 42 43 42 43 45 44 44
12 12 11 9 5 7 12 13 8 9 10 8 10 14 19 28 22 22 33 42 57 68 69 59 50 42 51 67 69 69 69 67 67 65 64 55 45 42 41 38 37 37 39 41 43 45 45 45 48
6 11 5 4 3 12 1 5 11 16 8 8 17 43 36 28 24 27 16 19 26 33 37 48 41 28 33 44 51 57 59 60 60 59 55 53 51 49 48 48 45 42 41 42 42 46 51 49 48
16 11 10 14 9 7 3 12 10 5 14 20 25 26 24 23 16 17 14 10 12 18 27 30 29 27 25 29 36 41 43 45 48 50 50 51 50 50 51 51 50 50 49 48 48 49 49 47 46
10 19 9 10 3 6 8 11 14 12 17 23 33 45 41 34 30 29 32 35 35 34 31 27 24 23 20 18 17 19 21 25 27 30 33 36 38 39 41 41 42 45 48 50 48 45 42 43 48
9 13 6 4 7 9 6 7 6 9 12 14 27 35 44 38 42 39 38 39 40 39 36 30 26 22 19 15 14 15 18 20 23 25 27 29 30 32 34 36 38 39 38 37 37 39 43 45 50
11 6 3 3 9 9 5 8 5 8 3 12 16 34 46 47 47 45 43 40 38 35 31 28 23 19 16 12 9 9 10 11 14 16 19 21 23 25 27 31 35 36 35 38 41 43 46 47 49
25 26 13 13 9 4 5 6 5 6 5 19 28 38 43 43 41 39 37 34 31 29 25 21 17 12 11 9 5 4 4 5 8 9 11 13 16 18 19 22 24 26 29 32 35 37 38 39 40
Wind_Direction_850mb
341 343 191 172 70 70 244 246 217 152 175 161 132 167 185 146 162 206 168 165 168 170 164 167 170 167 166 165 162 161 158 151 148 151 155 161 163 169 174 168 158 136 118 110 112 119 126 126 116
340 340 160 162 102 104 257 221 198 194 159 129 116 122 126 176 150 152 150 163 169 170 166 167 168 168 169 169 164 165 166 167 164 164 166 167 164 157 152 148 143 140 113 104 114 117 115 117 97
334 323 200 112 120 183 209 208 191 170 149 154 123 125 151 178 175 171 169 166 167 171 169 169 170 169 169 169 168 167 170 178 173 170 173 168 170 163 140 135 128 137 119 108 107 109 113 112 103
331 250 73 109 208 248 214 206 175 128 197 190 150 119 155 170 179 176 176 170 165 170 172 172 173 172 171 170 172 177 178 182 185 179 177 164 167 190 156 140 160 135 123 120 125 129 132 135 127
321 269 75 119 246 258 259 226 166 153 166 172 172 187 174 193 166 170 177 172 169 172 174 177 178 177 177 178 180 184 186 184 197 202 199 188 183 195 195 175 169 140 150 151 150 153 154 152 149
311 60 77 220 248 270 276 201 165 156 159 155 166 151 170 171 162 171 173 174 173 178 179 183 184 185 185 185 190 190 190 191 195 204 203 196 190 194 208 189 165 173 173 152 162 169 173 173 184
217 92 219 188 241 296 241 171 169 162 160 197 163 141 200 183 167 172 174 176 178 186 189 189 191 191 193 195 197 199 201 202 201 204 204 200 199 197 207 201 180 178 201 214 175 183 189 198 209
271 100 159 224 199 242 113 183 233 178 201 175 187 196 210 192 180 174 179 179 184 190 196 197 198 200 201 201 203 204 206 203 201 198 206 206 210 217 219 225 204 203 199 198 205 200 206 218 229
214 72 236 224 168 229 149 171 206 196 172 181 189 225 222 183 183 179 183 185 190 197 202 203 204 205 207 207 208 208 210 210 212 214 210 207 212 223 225 223 227 230 224 223 227 229 227 233 242
165 168 219 204 204 211 155 145 171 171 177 209 206 213 221 182 188 189 191 194 195 195 199 205 209 211 212 212 213 213 213 214 216 218 224 222 218 221 225 224 231 235 240 244 246 251 256 260 264
182 207 205 230 215 197 184 229 176 150 242 205 211 207 207 191 195 200 202 206 205 201 202 207 211 214 218 220 220 220 221 223 224 224 229 230 229 229 229 228 231 238 243 248 253 257 262 268 271
170 242 202 220 200 187 188 180 233 196 204 219 226 227 212 202 205 208 209 210 210 211 210 210 213 219 221 224 228 230 232 231 230 233 236 238 240 241 241 242 245 248 250 246 245 252 264 272 274
215 244 220 212 192 206 221 230 240 250 228 232 230 222 216 212 213 215 215 216 216 218 217 214 213 218 223 226 230 233 236 237 240 241 242 245 246 248 249 250 250 252 253 251 254 265 272 277 280
247 233 241 231 216 203 193 241 182 257 242 245 239 224 213 212 214 214 215 217 220 220 220 216 217 220 223 227 234 238 240 241 240 241 244 248 252 253 253 254 256 256 257 261 265 272 276 278 280
185 207 295 234 208 227 192 261 222 241 248 224 220 223 216 213 214 218 222 222 221 222 220 220 221 221 223 225 231 236 240 239 242 245 247 249 251 253 256 257 257 259 259 262 265 271 276 279 280
154 96 218 273 158 236 149 260 251 250 237 233 229 220 219 217 218 222 225 229 229 229 227 224 225 226 226 229 231 236 238 241 246 250 255 259 254 252 255 256 258 260 262 264 264 269 273 276 280
335 182 200 314 205 137 175 252 274 253 223 236 230 226 226 228 226 227 228 232 237 236 234 231 230 233 232 233 236 239 243 247 251 255 257 263 269 266 260 258 260 260 260 262 267 273 276 280 282
195 182 209 207 201 205 221 257 267 277 216 238 235 234 233 232 231 230 232 234 238 239 240 240 240 239 238 238 238 240 244 245 248 252 256 260 265 270 274 271 265 265 265 265 267 270 274 280 285
168 194 186 223 244 173 237 251 258 254 255 263 252 254 250 242 236 235 235 235 237 239 238 238 240 241 239 238 236 237 240 245 249 253 256 258 261 270 273 274 275 273 271 274 273 275 279 283 288
141 169 245 286 28 166 281 263 261 214 233 239 255 264 260 255 246 242 235 235 235 235 237 237 236 238 238 240 241 244 249 252 257 260 263 264 268 270 274 273 272 275 277 284 274 273 276 278 281
197 175 169 266 330 123 325 279 248 246 234 249 250 255 261 259 250 243 240 237 238 238 236 236 236 238 238 240 242 242 245 251 256 260 265 269 275 276 276 275 273 271 271 275 284 280 274 275 283
222 178 168 270 25 245 25 281 287 269 268 246 258 250 251 255 256 253 247 240 237 235 238 240 241 242 242 243 243 242 245 252 266 274 277 278 282 280 279 280 273 268 267 270 274 280 280 280 283
222 152 179 184 179 4 249 343 271 293 281 263 253 256 262 269 267 260 258 251 242 239 234 235 239 242 241 242 245 246 247 253 258 266 270 276 280 281 283 280 272 265 265 268 272 275 276 276 280
139 99 67 65 109 268 194 172 253 216 219 272 302 298 306 311 281 296 271 252 245 238 237 238 239 249 245 244 244 245 246 251 257 263 268 270 270 274 279 280 275 272 270 270 273 277 277 277 274
150 117 39 18 360 232 106 196 263 259 288 274 292 306 312 311 304 316 307 264 237 228 231 226 225 234 230 233 236 239 244 248 252 257 258 258 262 265 267 271 272 272 273 271 271 273 277 276 272
190 164 157 181 192 239 57 231 250 37 346 40 52 43 52 47 57 50 72 98 129 171 182 189 193 197 202 215 223 230 238 243 247 250 255 259 261 263 263 263 265 267 268 268 270 271 273 272 266
175 218 152 109 67 63 213 289 321 49 33 22 32 43 41 57 72 84 90 100 109 121 134 143 148 152 160 177 193 208 219 228 233 241 250 256 259 259 259 260 261 263 267 270 270 270 269 270 270
176 149 191 38 150 235 264 275 213 21 23 15 31 32 53 71 80 90 94 97 102 108 113 121 125 135 143 163 185 200 212 222 233 240 246 252 256 257 258 259 262 264 267 271 271 269 267 263 266
182 221 161 135 159 176 160 254 224 149 59 62 44 47 66 76 80 86 93 97 99 104 109 110 115 120 128 138 158 184 202 216 228 238 243 249 255 258 260 262 266 266 267 266 266 265 264 263 264
200 204 189 191 220 227 128 281 135 124 28 78 65 72 81 87 89 91 93 96 99 100 103 105 109 118 121 128 145 177 206 237 254 264 266 269 272 275 277 277 275 271 269 268 268 268 268 269 267